Home > Weather > Santa Cruz > Past weeks

Flag for U.S.A. Weather for the Past 2 Weeks in Santa Cruz, California, U.S.A.

Now
48 °F

Clear.


Feels Like: 47 °F
Forecast: 49 / 71 °F
Wind: 3 mph from Northwest

Location: Watsonville Municipal Airport

Current Time: Feb 14, 2016 at 2:45:54 AM

Latest Report: Feb 14, 2016 at 1:53 AM


Visibility: 10 mi

Pressure: 30.29 "Hg

Humidity: 96%

Dew point: 47 °F

Location of Santa CruzLocation

Historic Weather in Santa Cruz — Graph

°F

Santa Cruz Temperature Yesterday

Maximum temperature yesterday: 67 °F (at 12:53 PM)
Minimum temperature yesterday: 48 °F (at 3:53 AM)
Average temperature yesterday: 55 °F

High & Low Weather Summary for the Past Weeks

 TemperatureHumidityPressure
High81 °F (Feb 9, 1:53 PM)100% (Jan 30, 12:53 AM)30.44 "Hg (Jan 30, 12:53 AM)
Low37 °F (Feb 2, 1:53 AM)27% (Feb 9, 1:53 PM)29.77 "Hg (Jan 31, 1:53 PM)
Average54 °F71%30.21 "Hg
* Reported Jan 30 12:53 AM — Feb 14 12:53 AM, Santa Cruz, Weather by CustomWeather, © 2016

Note: Actual official high and low records may vary slightly from our data, if they occured in-between our weather recording intervals... More about our weather records

Advertising

Santa Cruz Weather History for the Previous 24 Hours

 ConditionsComfort  
Time TempWeatherWind HumidityBarometerVisibility
12:53 AM
Sun, Feb 14
48 °FClear.3 mph93%30.28 "Hg10 mi
11:53 PM
Sat, Feb 13
50 °FClear.No wind89%30.28 "Hg10 mi
10:53 PM50 °FClear.6 mph93%30.28 "Hg10 mi
9:53 PM51 °FClear.3 mph92%30.27 "Hg10 mi
8:53 PM52 °FClear.6 mph93%30.26 "Hg10 mi
7:53 PM55 °FFog.No wind90%30.25 "Hg5 mi
6:53 PM58 °FClear.No wind78%30.23 "Hg10 mi
5:53 PM62 °FClear.5 mph67%30.20 "Hg10 mi
4:53 PM64 °FSunny.3 mph65%30.20 "Hg10 mi
3:53 PM64 °FSunny.6 mph68%30.19 "Hg10 mi
2:53 PM66 °FSunny.6 mph61%30.18 "Hg10 mi
1:53 PM66 °FSunny.7 mph65%30.19 "Hg10 mi
12:53 PM67 °FSunny.5 mph68%30.21 "Hg10 mi
11:53 AM65 °FSunny.5 mph70%30.24 "Hg10 mi
10:53 AM60 °FScattered clouds.3 mph83%30.25 "Hg10 mi
10:01 AM53 °FFog.3 mph100%30.25 "Hg1 mi
8:53 AM51 °FFog.No wind100%30.26 "Hg0 mi
7:53 AM49 °FFog.3 mph100%30.25 "Hg0 mi
6:53 AM48 °FFog.No wind96%30.24 "Hg0 mi
5:53 AM48 °FFog.No wind100%30.23 "Hg0 mi
4:53 AM48 °FClear.No wind96%30.22 "Hg10 mi
3:53 AM48 °FClear.5 mph93%30.21 "Hg10 mi
2:53 AM50 °FClear.5 mph89%30.21 "Hg10 mi
Weather by CustomWeather, © 2016

See weather overviewHow to use our weather pages